Tracking 27419 objects as of 10-Jun-2023
HD Live streaming from Space Station
objects crossing your sky now

FLOCK 3S 1

Track FLOCK 3S 1 now!
10-day predictions
FLOCK 3S 1 is classified as:


NORAD ID: 43769
Int'l Code: 2018-099M
Perigee: 561.1 km
Apogee: 583.4 km
Inclination: 97.6 °
Period: 96.0 minutes
Semi major axis: 6943 km
RCS: Unknown
Launch date: December 3, 2018
Source: United States (US)
Launch site: AIR FORCE WESTERN TEST RANGE (AFWTR)
Your satellite tracking list
Your tracking list is empty




NASA's NSSDC Master Catalog

Two Line Element Set (TLE):
1 43769U 18099M   23160.88461503  .00007527  00000-0  59887-3 0  9994
2 43769  97.5673 221.9397 0016062 163.6037 196.5710 15.00585198246500
Source of the keplerian elements: AFSPC